GFSGBSN_500_spd_015.txt.gz
Wind_Speed
41 41 31 23 21 22 24 25 26 25 23 22 23 25 27 27 30 33 34 33 30 30 27 24 21 18 16 13 12 11 11 11 12 15 18 19 18 18 19 18 19 19 19 18 22 21 21
39 40 41 36 23 17 16 16 19 24 28 29 29 28 29 32 34 36 34 30 29 28 24 21 20 18 16 13 12 12 11 11 12 15 17 19 20 21 20 21 21 20 20 20 21 22 22
37 38 39 41 40 35 28 26 26 28 31 32 32 32 33 34 34 32 31 28 26 23 22 20 19 18 16 14 15 14 14 14 15 17 18 19 21 23 22 24 23 23 22 23 23 25 27
34 35 37 37 39 40 39 37 36 37 36 34 33 33 33 32 31 29 27 25 24 22 21 20 19 19 17 16 15 14 16 16 18 18 19 20 23 23 23 24 24 26 27 26 26 30 32
35 33 33 35 36 36 38 38 37 35 34 33 31 30 29 28 26 25 22 19 15 15 16 18 19 19 18 17 16 16 17 18 19 19 20 21 23 23 23 26 29 30 32 31 29 32 36
33 34 33 31 31 33 32 32 34 34 33 31 30 28 27 25 22 19 17 15 13 12 12 12 14 14 14 15 16 17 18 18 19 21 22 24 25 24 26 33 33 34 36 35 33 31 40
29 30 31 32 32 29 28 29 30 29 28 27 26 25 24 22 20 18 15 13 10 8 5 4 6 7 9 10 12 13 15 17 19 21 23 25 24 25 30 33 36 37 39 41 36 36 45
22 24 26 28 28 28 28 28 26 25 24 23 22 21 19 17 15 12 11 9 7 7 7 6 6 7 7 9 11 13 14 16 18 20 24 24 23 27 29 34 36 38 40 40 41 40 45
20 20 21 22 22 23 24 23 23 22 22 21 20 18 16 14 12 10 7 5 3 1 2 5 6 9 9 12 15 17 17 18 19 22 25 26 27 28 32 34 38 40 43 45 47 46 45
17 17 19 20 20 21 21 22 22 21 18 17 15 15 14 12 11 9 8 6 4 4 4 4 6 7 9 12 15 18 18 19 21 22 24 26 28 30 32 33 39 41 42 46 48 51 50
15 15 15 17 17 18 19 19 19 19 18 16 15 14 13 11 10 10 9 9 8 6 7 8 8 10 11 14 16 17 18 20 22 22 22 23 25 25 25 29 31 36 40 43 45 48 50
12 13 14 16 16 16 15 15 15 15 15 14 14 13 12 12 11 11 10 8 8 7 9 11 11 14 16 16 16 17 18 21 22 23 24 24 27 30 33 36 40 46 49 52 54 57 59
7 9 10 11 12 12 12 12 12 12 12 12 13 12 12 12 10 12 12 11 11 12 14 14 14 16 17 18 20 21 23 25 28 30 29 33 34 38 39 46 48 53 58 63 64 65 66
5 8 9 9 10 11 10 10 11 12 13 13 14 14 14 14 14 15 15 15 16 16 14 16 17 19 19 22 23 26 28 31 32 35 39 42 43 46 51 54 57 61 65 69 75 75 77
5 6 9 11 13 13 12 12 13 12 11 12 12 12 14 15 15 16 18 19 20 20 20 21 24 25 27 30 32 33 34 35 39 40 45 49 49 52 54 60 64 66 73 74 80 83 87
4 7 9 11 12 13 14 13 12 13 14 17 18 18 17 17 16 16 17 20 20 21 22 24 26 28 31 35 38 40 41 43 45 47 51 54 59 58 63 64 67 71 75 79 79 84 92
4 6 8 9 10 11 11 14 16 16 16 17 17 18 19 19 19 20 21 21 21 22 25 27 30 34 36 38 39 40 43 47 48 52 56 58 61 62 69 70 76 81 88 89 90 88 78
6 6 7 7 8 9 13 15 17 18 19 19 20 21 22 21 22 23 23 25 27 29 32 34 35 37 39 42 43 43 45 48 53 58 59 61 64 68 70 73 81 89 98 101 94 96 92
8 8 7 7 8 9 12 14 16 18 21 24 25 25 25 26 25 25 26 27 31 33 35 36 38 40 43 46 49 50 53 57 60 63 62 66 70 77 78 85 96 99 100 103 97 82 84
10 10 10 10 9 11 14 16 18 21 24 28 29 29 29 29 30 29 29 30 32 35 38 41 43 45 47 49 51 53 57 59 60 62 65 70 73 77 84 87 94 99 102 104 89 79 62
14 14 14 14 15 15 16 19 21 24 26 30 32 32 32 34 33 31 33 35 37 39 41 44 47 49 51 50 52 56 58 58 59 64 67 72 76 81 87 92 99 100 100 77 54 50 51
18 19 19 18 19 20 21 23 24 26 28 30 33 34 33 33 33 35 37 39 41 44 46 48 48 49 52 53 56 55 57 60 62 65 71 76 80 86 88 95 96 94 68 46 40 40 43
23 24 24 25 24 23 24 25 28 30 31 34 35 35 35 35 38 37 37 39 45 49 48 49 50 51 52 54 53 51 54 59 64 69 72 78 85 92 96 95 89 71 43 36 40 41 45
29 29 29 28 27 26 26 27 29 32 35 38 39 40 40 42 41 42 42 46 51 50 45 46 48 49 51 52 52 56 61 64 67 71 78 80 87 93 97 81 69 51 29 39 45 43 45
33 32 30 30 31 31 32 33 34 36 38 40 42 40 41 42 45 45 46 51 55 49 44 46 49 51 52 53 54 56 59 64 66 72 79 85 88 85 70 59 56 51 36 42 42 35 38
34 34 33 32 34 36 37 38 39 41 42 43 45 42 42 46 47 46 48 50 48 42 40 42 44 46 49 54 58 60 61 63 67 71 80 83 84 69 53 46 49 36 33 36 39 38 38
37 37 37 38 38 40 42 41 41 41 45 47 48 47 45 48 50 50 47 48 45 41 39 42 46 49 53 54 56 59 61 65 70 76 79 75 68 57 44 46 45 31 33 35 40 37 37
41 42 43 44 44 43 45 45 45 44 43 47 49 49 48 48 49 45 44 42 40 40 40 45 49 53 53 56 56 57 59 65 71 76 73 66 59 44 44 43 37 30 35 41 43 38 45
47 48 49 49 48 46 47 49 49 48 45 47 49 49 49 44 47 44 42 44 41 41 44 48 51 58 59 60 60 61 65 72 74 75 64 56 47 43 41 38 34 32 39 39 42 46 43

GFSGBSN_500_spd_021.txt.gz
Wind_Speed
31 27 29 29 29 30 31 30 29 29 29 30 32 34 35 34 32 30 30 32 31 29 28 26 22 21 20 18 16 15 15 16 17 18 19 20 21 21 21 21 19 17 20 21 24 25 26
39 32 27 28 26 26 28 29 29 29 28 29 30 31 32 31 28 29 31 32 29 27 26 24 23 22 19 18 16 16 16 15 16 18 19 19 20 20 19 20 21 20 23 25 25 27 28
41 39 35 28 25 24 23 25 27 27 26 25 25 25 25 26 28 29 31 29 27 26 25 25 23 21 19 18 17 16 15 15 16 17 17 18 19 20 20 22 23 25 27 26 27 27 30
38 40 38 37 32 27 25 22 22 22 24 26 28 28 29 30 31 32 30 28 27 25 24 24 23 21 19 18 17 16 16 16 14 15 15 17 18 18 20 23 24 26 27 26 27 27 33
36 36 37 36 36 36 32 27 25 24 25 26 28 31 33 33 31 29 28 26 25 25 25 23 21 20 19 18 15 14 13 13 14 14 15 17 18 19 22 24 24 28 26 27 28 29 35
33 33 33 33 33 33 33 35 35 33 31 30 29 29 28 27 24 21 19 18 18 18 17 14 13 14 14 12 13 13 13 14 15 14 15 17 18 21 23 25 25 27 29 26 25 29 35
29 30 31 30 30 30 30 29 30 30 30 28 27 25 23 21 19 17 16 15 13 11 9 8 7 6 8 8 10 10 11 12 13 13 15 15 18 20 23 24 26 28 30 29 28 28 36
26 27 27 27 28 27 26 26 26 26 26 25 24 23 21 20 19 17 15 13 12 12 10 8 6 5 5 5 7 8 10 12 15 16 17 18 20 22 23 26 28 29 30 29 29 28 31
23 25 24 24 24 23 23 23 23 22 22 21 21 20 19 18 17 15 13 12 10 7 5 3 1 2 4 5 7 8 11 13 14 16 17 19 22 24 24 25 28 27 28 27 31 30 31
19 21 22 23 22 22 21 20 20 19 19 19 18 17 16 15 14 12 11 9 8 6 5 2 1 1 3 5 7 9 12 14 16 17 19 21 22 23 24 26 29 29 31 34 37 40 40
14 16 17 18 19 20 20 20 20 20 18 16 14 14 14 14 13 11 9 8 7 5 2 3 4 5 6 8 10 12 14 16 17 19 21 25 25 27 28 30 31 34 36 39 42 45 48
10 12 13 13 13 14 15 14 15 15 16 15 14 13 12 11 10 9 7 5 3 2 4 6 7 7 9 11 13 14 16 18 21 22 26 28 32 32 34 36 38 40 43 45 49 52 54
6 8 9 9 9 9 9 10 10 11 12 12 11 11 10 8 7 7 5 3 2 2 3 3 5 7 9 12 14 17 19 21 25 28 31 33 35 36 37 39 43 43 48 52 54 57 59
3 3 6 7 6 8 8 9 9 10 10 10 9 9 8 8 6 5 4 3 3 3 5 6 8 9 13 17 18 22 26 30 27 32 36 36 43 39 42 42 45 49 52 53 57 58 59
1 1 3 3 4 7 7 7 8 7 9 10 9 10 9 7 6 5 4 5 6 7 8 9 12 15 17 21 24 28 27 31 33 37 40 43 45 45 49 46 51 55 56 56 61 61 64
3 2 0 1 3 4 6 6 5 6 7 7 7 8 8 7 6 5 6 7 7 9 11 14 16 18 20 23 27 31 34 36 39 42 43 47 50 47 48 50 52 52 53 54 59 67 70
6 5 4 3 3 3 3 3 5 7 8 8 7 6 6 7 6 8 8 10 11 12 14 16 17 20 23 27 31 35 39 41 43 46 47 47 51 50 52 54 55 54 58 63 67 71 74
7 8 7 5 5 3 2 2 4 4 4 6 8 7 8 7 8 10 10 11 12 14 16 19 21 25 27 32 35 39 41 43 45 48 48 46 47 48 51 52 54 57 61 66 71 71 76
10 10 8 7 7 6 4 4 3 3 5 6 6 7 8 9 11 12 13 15 16 18 20 23 26 30 33 36 40 40 42 42 45 46 46 47 48 50 54 58 59 62 67 70 72 77 77
11 11 11 10 10 9 9 9 9 10 11 10 10 10 10 11 12 13 15 18 20 21 24 27 29 31 34 38 40 41 41 42 44 44 44 46 46 48 52 58 61 63 65 67 75 79 82
15 14 14 14 14 13 12 12 13 14 15 14 14 14 14 14 16 17 19 21 22 24 27 30 32 33 37 40 40 39 41 43 42 44 44 46 51 55 58 59 62 64 66 70 73 81 87
18 19 19 18 18 18 16 15 16 18 19 17 17 18 18 18 19 21 23 25 27 29 31 33 34 38 40 43 42 44 45 45 46 48 50 52 54 58 61 60 63 66 69 76 79 80 86
24 23 23 23 23 23 22 20 20 21 21 22 23 22 22 21 22 25 27 29 31 34 34 36 38 41 43 43 43 45 45 48 50 51 53 56 60 64 61 63 67 70 76 75 78 79 81
29 29 28 27 28 28 27 26 26 25 25 26 26 26 25 25 26 28 30 32 34 36 37 37 40 42 42 44 43 46 47 51 52 56 59 62 62 66 67 68 69 72 71 74 77 79 70
34 33 33 32 32 32 31 30 29 27 28 29 29 29 30 29 30 32 33 35 37 38 39 39 41 43 45 43 46 48 51 54 55 58 58 58 61 66 66 68 69 74 70 73 76 78 57
39 37 37 36 34 33 32 32 31 30 31 31 31 32 32 33 33 35 36 38 39 41 42 41 42 45 43 46 48 48 49 52 52 54 55 58 60 65 68 71 69 67 71 74 78 72 52
42 41 40 39 38 36 35 33 34 34 33 33 34 35 35 36 37 38 38 40 41 41 43 44 45 44 46 49 46 45 44 46 49 51 56 59 63 65 67 67 70 69 72 72 68 58 49
46 45 44 43 43 42 40 37 36 37 37 37 37 38 39 41 41 40 40 41 41 42 44 44 46 46 45 43 46 48 47 50 48 49 52 56 63 64 65 68 63 64 64 57 57 55 50
51 49 48 48 48 46 46 42 40 41 42 43 43 43 44 45 42 40 41 42 41 42 41 44 44 43 47 47 44 45 48 50 49 53 57 60 64 65 64 63 67 62 57 54 52 43 47

GFSGBSN_500_spd_024.txt.gz
Wind_Speed
29 32 32 31 29 27 25 24 25 28 31 31 35 38 36 34 29 27 28 32 33 30 28 25 21 19 18 16 15 13 13 13 14 15 17 19 21 22 22 21 23 22 22 21 20 20 22
31 29 30 31 30 29 29 27 25 25 26 32 35 37 35 33 30 27 27 31 31 29 27 23 19 17 17 16 15 14 14 14 15 16 17 19 20 21 21 22 22 22 22 22 25 26 27
41 32 29 28 30 28 27 28 28 26 27 29 30 31 30 29 27 26 28 30 28 26 24 22 20 18 16 17 15 15 15 14 15 15 15 16 18 19 18 22 21 23 24 26 27 28 31
40 39 32 29 27 24 24 24 23 24 25 25 26 26 25 25 26 28 29 28 26 24 24 21 19 18 17 16 16 15 14 12 11 11 13 14 15 16 18 20 21 23 24 24 27 27 30
37 38 38 33 27 26 24 22 21 21 21 23 25 27 28 29 31 32 30 27 25 24 22 21 19 18 17 17 13 10 9 9 10 12 13 15 17 18 20 22 20 25 21 23 21 30 31
34 35 35 35 34 31 31 28 23 22 23 23 26 27 28 30 30 28 26 26 24 22 20 18 16 12 11 9 8 7 8 9 11 13 13 15 16 18 20 20 19 21 26 23 24 24 33
30 32 32 31 31 31 30 30 31 32 30 29 27 27 25 23 21 19 16 14 13 12 10 11 11 10 10 8 9 8 8 9 9 11 12 10 17 16 20 22 22 23 24 25 24 26 31
27 28 29 29 28 27 27 26 26 26 26 26 25 24 24 22 20 19 17 15 12 11 10 10 9 8 7 5 4 4 5 7 10 12 13 16 17 17 20 22 24 24 25 24 21 24 28
24 25 27 27 27 25 24 22 22 22 22 21 21 19 18 18 16 16 15 14 14 12 11 9 7 6 5 3 2 4 5 7 9 11 13 15 18 19 22 24 26 26 30 28 31 30 31
20 22 22 23 25 24 21 20 20 19 19 18 17 17 16 15 14 13 13 12 10 8 8 4 4 3 1 1 2 4 6 8 10 11 15 16 18 21 25 27 30 30 34 34 35 39 40
15 16 17 18 19 20 21 21 19 17 16 15 16 15 15 14 12 11 10 9 9 8 7 3 2 1 2 3 4 7 8 10 12 16 17 23 23 25 28 31 34 35 38 40 41 42 47
12 13 13 13 13 14 14 14 15 15 15 14 14 13 13 12 11 10 9 8 7 3 2 0 1 1 3 6 8 9 12 15 17 21 24 26 31 32 34 35 37 40 42 41 43 46 48
8 9 10 10 9 10 11 10 10 10 11 12 11 11 10 9 9 8 7 5 3 3 2 1 2 4 6 9 10 14 15 16 23 27 28 33 34 36 37 39 43 46 47 49 50 52 51
4 5 7 7 6 7 9 9 10 10 9 8 8 7 8 7 6 6 4 3 2 1 0 2 4 6 9 13 14 17 21 23 25 30 34 35 41 38 41 40 44 46 46 46 51 50 51
1 0 2 3 3 4 7 7 6 7 8 7 8 7 7 7 6 4 2 1 0 1 3 5 8 10 13 16 18 21 21 27 30 33 37 39 41 42 44 44 44 45 46 47 51 52 53
4 3 2 1 1 2 4 4 4 4 5 5 5 5 4 4 3 2 2 4 5 7 9 11 12 14 15 17 22 24 28 31 34 37 39 41 41 39 42 40 43 42 44 46 50 55 59
7 6 6 5 4 5 3 3 5 6 6 5 4 4 2 3 3 3 4 5 6 7 8 11 13 16 18 22 24 28 32 34 36 38 39 41 43 42 44 44 44 45 49 53 57 60 63
7 9 8 8 8 7 6 5 6 5 3 3 4 3 4 4 4 5 6 7 8 9 11 13 15 18 22 25 28 30 34 36 38 38 40 38 41 41 43 44 47 51 55 58 61 63 67
9 10 10 9 9 9 9 8 7 5 3 2 4 5 4 5 6 6 7 8 9 11 13 15 18 20 23 26 29 32 34 37 40 41 43 43 44 47 49 51 53 58 61 64 63 66 68
13 12 11 11 11 11 11 12 12 11 9 8 8 9 10 10 11 11 11 12 13 14 15 18 20 22 24 27 32 36 38 40 41 42 44 45 45 48 50 51 57 60 62 62 66 70 73
17 17 16 15 15 14 13 14 15 16 14 12 13 14 15 14 16 17 17 18 18 19 20 22 25 26 29 31 34 37 40 43 44 44 45 46 48 53 56 59 61 63 62 63 65 72 75
21 21 21 20 20 19 18 16 17 18 18 17 16 17 19 20 20 22 22 23 23 23 24 26 29 30 32 35 37 40 42 44 45 49 48 51 53 56 58 59 62 63 63 66 66 69 74
24 25 25 25 24 24 23 21 21 22 22 22 21 21 22 23 24 26 26 27 26 26 28 29 31 32 35 36 39 42 42 44 46 49 50 53 56 59 59 62 64 62 62 62 63 67 71
28 28 29 29 28 28 29 27 26 26 27 26 26 25 25 27 28 28 29 30 30 30 31 33 34 36 37 39 42 43 44 47 50 49 48 50 55 59 60 61 63 63 65 65 63 65 66
32 32 32 33 33 32 32 31 30 30 30 30 30 29 29 29 31 31 32 33 32 33 35 36 38 40 39 42 42 45 48 50 49 48 50 52 56 58 59 62 62 60 66 64 62 63 67
38 38 37 37 36 36 35 34 33 32 32 31 32 32 32 32 33 33 34 35 36 37 37 38 41 41 43 42 45 46 48 49 51 47 47 49 53 56 57 59 59 59 61 64 69 66 68
43 42 41 40 38 38 38 38 37 35 35 36 35 35 35 34 35 35 36 37 39 40 40 40 41 42 41 44 44 47 48 48 47 47 45 46 53 54 55 58 61 63 65 66 68 70 68
46 45 44 44 44 42 42 42 41 40 39 39 40 40 38 37 39 40 41 41 41 41 40 43 42 40 42 44 45 47 48 49 48 47 43 45 51 53 54 58 63 66 65 62 66 68 62
51 51 50 50 49 49 47 47 46 45 45 44 43 42 43 45 44 45 45 44 41 40 43 43 40 40 43 46 47 46 44 49 51 48 43 46 51 52 57 57 61 65 66 66 65 68 65

GFSGBSN_500_spd_030.txt.gz
Wind_Speed
31 31 33 33 33 33 27 27 30 33 36 37 37 37 34 31 32 38 43 41 37 34 31 28 27 25 23 20 18 17 14 13 13 13 12 12 12 12 14 15 15 15 17 19 19 23 20
29 31 32 34 34 33 30 26 27 30 31 31 30 30 30 32 35 39 44 40 37 33 30 28 26 25 22 21 18 16 14 13 13 12 12 12 12 12 13 15 13 15 14 17 20 23 23
27 29 30 33 36 34 34 29 30 31 33 34 34 34 33 35 38 42 42 38 35 32 29 27 26 25 22 19 17 15 14 13 12 11 10 10 11 11 12 12 12 14 12 17 18 20 21
28 28 30 30 35 36 33 34 32 34 34 34 33 32 32 36 41 43 40 36 33 31 28 27 25 22 19 17 15 14 12 11 10 10 8 8 9 10 11 11 13 13 12 14 18 19 17
32 30 29 29 30 33 31 30 29 28 28 29 30 29 31 36 41 39 37 34 31 29 27 24 22 19 17 16 14 13 11 10 9 8 8 9 10 11 10 10 11 10 9 11 15 19 15
32 31 30 29 28 26 28 26 23 23 24 26 27 28 28 31 35 34 32 30 28 26 24 22 20 17 15 14 13 11 10 11 10 10 10 10 9 8 7 8 10 11 11 12 14 18 20
29 31 31 29 31 28 24 22 22 22 21 22 25 28 30 31 31 31 29 28 26 24 24 19 18 17 14 12 12 13 12 11 10 8 7 7 8 9 9 9 10 12 13 13 18 22 23
26 27 29 30 29 28 29 27 24 21 19 20 21 25 28 29 29 28 27 24 22 20 19 18 16 14 14 13 12 11 10 10 8 6 7 7 7 8 11 12 13 15 17 18 21 24 28
24 25 25 26 27 27 25 24 25 25 26 26 24 22 22 22 23 23 22 22 21 21 20 18 16 13 11 11 11 9 9 8 6 5 5 5 6 10 13 15 17 20 22 25 26 27 32
20 21 23 24 23 24 23 23 23 21 21 20 20 21 21 21 20 18 18 18 17 14 14 13 13 11 11 10 10 8 7 6 6 6 6 6 9 12 16 19 21 24 27 30 32 32 32
14 15 16 19 20 21 19 20 19 18 17 18 18 17 17 17 15 16 16 16 15 14 13 13 12 10 11 12 12 8 6 6 7 5 9 9 13 15 20 23 25 27 29 32 33 34 34
12 12 12 13 15 16 16 16 16 15 14 14 14 13 14 14 15 14 14 14 14 15 7 12 11 10 10 9 9 7 7 7 7 8 10 12 15 19 24 28 28 28 29 33 33 34 36
8 10 9 10 9 11 11 12 11 11 11 11 10 10 11 11 12 12 13 12 12 11 10 10 10 10 10 9 7 7 7 7 8 9 12 16 19 22 24 28 30 31 33 34 38 39 41
4 5 6 7 6 5 9 9 8 8 9 9 9 9 9 10 10 10 11 11 11 11 11 11 10 9 8 8 7 7 8 8 10 13 16 18 20 23 26 29 32 34 35 38 41 43 45
3 2 3 4 5 5 3 5 7 8 8 8 8 8 9 9 9 10 10 11 11 10 9 9 10 9 9 7 6 6 8 11 13 16 19 21 23 26 31 33 36 39 39 41 44 46 48
2 0 1 1 2 2 2 2 1 3 4 5 6 8 8 9 9 9 9 8 9 9 9 10 9 8 8 6 7 10 12 14 15 18 21 24 26 30 34 37 38 38 39 42 46 49 53
4 4 2 3 2 2 3 2 3 4 4 5 6 7 8 8 9 8 8 9 8 8 7 7 7 7 7 9 11 14 15 16 19 21 24 27 29 32 35 36 38 41 43 46 48 49 54
7 7 7 5 6 6 7 6 6 6 6 5 6 6 8 9 8 8 8 7 7 6 7 7 8 9 10 11 14 16 19 21 23 27 29 32 33 35 37 41 41 42 45 47 50 52 56
11 10 10 9 8 9 10 10 10 10 10 9 8 7 8 9 8 8 9 9 8 8 9 10 12 14 16 18 19 21 23 25 28 30 33 36 37 39 42 44 44 43 45 49 51 53 54
15 14 13 12 12 11 12 12 13 15 15 14 13 12 13 13 12 13 13 13 13 14 15 16 18 19 21 22 23 25 28 29 31 33 36 39 40 41 44 46 47 46 47 49 53 55 58
18 18 18 17 17 16 15 15 15 16 17 19 18 18 18 18 18 17 18 18 19 19 20 21 23 24 25 26 27 29 31 33 34 36 38 41 42 44 45 47 47 47 48 51 54 56 59
20 20 21 21 21 20 20 20 20 19 20 19 21 22 22 22 23 23 24 24 24 25 25 26 27 28 30 31 32 33 35 36 37 39 41 42 45 46 45 47 49 48 48 53 55 58 60
23 22 22 23 23 22 22 22 23 23 24 24 25 25 25 25 26 26 27 28 29 30 30 31 31 33 34 34 35 37 39 39 41 42 43 44 47 48 49 52 52 48 50 55 56 58 60
27 25 24 24 24 24 24 24 24 25 26 26 26 26 27 29 30 30 30 31 32 33 34 35 36 37 37 37 38 40 41 42 44 44 45 47 49 50 54 56 55 51 54 56 55 58 61
33 32 31 30 30 29 29 28 28 28 28 29 30 30 29 29 30 31 32 34 34 35 36 37 39 41 40 40 41 43 44 46 47 46 47 48 49 53 57 57 55 50 53 53 55 54 61
38 38 38 37 36 36 35 35 35 35 34 33 33 32 33 33 33 34 34 35 36 37 38 39 41 42 43 43 44 46 49 49 49 49 47 48 49 53 57 59 57 52 54 57 59 59 63
42 42 43 43 42 42 42 41 40 38 36 36 35 35 35 36 36 36 36 37 39 40 41 42 44 44 46 47 48 49 52 52 51 49 47 50 52 54 58 60 56 52 56 57 60 65 65
45 46 47 47 47 46 45 45 44 43 43 42 41 40 40 41 41 41 41 41 42 43 44 44 46 47 51 52 53 54 54 53 51 50 48 50 51 56 58 61 56 55 56 60 64 64 65
44 45 46 48 48 49 48 48 48 48 48 48 47 48 48 48 47 46 46 46 46 46 48 49 49 50 51 52 54 54 53 52 52 54 51 51 49 55 55 58 51 56 58 61 62 63 64

GFSGBSN_500_spd_033.txt.gz
Wind_Speed
29 28 31 32 28 24 20 22 25 30 36 42 44 42 40 42 44 44 44 42 38 35 32 29 28 26 24 23 21 19 17 16 15 14 13 13 12 12 13 12 11 13 15 16 18 17 16
29 29 33 35 30 25 24 27 30 35 38 40 39 38 37 36 36 40 42 41 37 33 31 29 28 26 24 21 20 18 17 16 14 14 14 13 12 12 13 11 11 11 11 15 15 16 15
28 29 34 38 37 28 26 27 30 32 33 33 31 30 31 33 36 39 43 39 35 32 30 29 28 26 24 22 20 19 18 16 15 14 13 13 12 12 12 9 10 10 12 15 15 17 13
26 28 30 37 38 37 32 30 28 29 32 32 31 31 31 33 36 41 42 37 34 32 31 30 28 25 23 22 20 19 17 16 14 13 12 12 12 11 10 10 10 11 10 14 16 14 14
24 26 28 30 34 35 35 33 31 31 30 29 29 31 33 34 37 43 39 35 33 31 31 29 26 25 22 21 19 18 16 14 13 13 12 12 12 11 10 11 10 8 8 12 18 14 15
24 24 24 26 27 28 29 29 30 27 26 25 25 29 33 36 42 38 34 32 31 30 29 27 25 23 22 20 18 17 15 14 14 13 13 12 11 10 8 10 8 10 10 12 15 17 20
25 23 23 23 25 24 24 25 26 27 27 25 24 28 35 39 36 33 30 29 28 27 26 24 22 20 19 18 17 16 16 16 15 12 11 11 10 9 10 10 9 10 11 13 18 21 22
24 25 23 23 24 23 22 22 22 23 24 25 27 29 32 31 29 27 26 25 24 23 22 20 19 18 17 17 17 16 16 13 12 10 10 10 9 9 9 9 10 11 13 16 19 23 25
21 23 23 24 22 24 24 23 23 22 22 24 26 29 30 30 30 29 27 26 25 23 22 20 19 18 17 16 14 14 13 12 10 10 9 8 9 9 11 11 13 15 17 19 21 25 28
19 19 20 22 23 23 21 20 20 22 24 23 23 23 24 24 23 23 23 24 22 20 20 19 18 16 15 15 15 13 11 11 11 9 8 9 9 10 13 14 16 18 22 23 24 26 28
14 16 16 17 19 21 21 21 20 19 17 17 17 19 20 20 20 20 19 19 19 17 18 17 15 14 14 13 13 12 11 10 9 10 10 9 12 14 15 16 18 21 23 25 27 29 29
10 11 13 14 13 15 16 17 18 17 16 16 16 16 15 15 15 15 14 14 15 15 15 12 13 13 14 13 13 12 11 11 11 12 13 12 12 15 16 17 18 21 24 27 27 30 33
8 8 8 9 9 10 11 12 12 13 13 13 12 12 11 12 12 13 13 14 14 15 11 11 11 12 12 12 12 13 13 13 13 12 12 12 13 15 18 19 21 23 26 29 33 34 39
5 5 5 6 6 6 7 7 7 8 8 9 9 10 10 10 10 11 12 13 13 14 12 11 12 12 12 13 14 15 15 14 13 13 13 15 16 19 21 22 23 25 28 33 37 39 40
2 4 4 4 5 5 5 4 5 5 5 6 7 7 7 8 9 10 11 12 13 11 12 12 13 14 14 14 15 15 16 15 15 16 16 17 19 21 22 23 27 29 33 37 40 43 44
0 1 3 3 2 2 2 3 3 3 5 6 7 9 9 10 10 11 11 12 12 12 13 14 14 15 15 15 15 16 16 16 17 18 19 21 22 23 25 28 31 34 38 41 43 46 50
2 2 3 4 3 3 3 2 3 3 4 5 6 9 10 12 13 13 13 13 13 14 15 15 15 16 16 15 15 15 16 17 17 19 22 24 25 28 31 33 36 39 41 43 44 47 52
5 5 5 5 7 6 6 6 6 5 5 5 6 7 9 10 12 12 13 13 15 15 15 14 14 15 15 16 16 16 17 19 22 24 26 28 29 32 34 37 39 41 44 46 48 51 53
9 9 8 8 8 9 9 9 10 10 11 9 8 8 9 10 11 12 12 13 14 14 14 14 15 16 16 17 19 21 23 25 27 29 31 32 34 37 40 41 43 44 46 47 51 53 52
13 13 12 12 11 12 11 12 12 12 14 15 15 13 13 13 13 14 14 15 16 16 17 17 18 19 20 21 23 25 26 27 30 32 35 37 38 41 44 46 46 46 47 49 52 55 57
18 17 17 16 16 15 15 15 15 15 15 16 17 19 20 19 19 19 19 20 21 21 22 23 23 24 25 26 28 29 31 32 34 36 38 41 42 44 46 47 48 48 45 49 54 56 59
22 21 20 20 20 19 18 18 19 19 19 19 19 19 21 24 25 26 26 26 26 27 28 29 30 31 31 32 33 34 36 37 38 40 42 44 47 48 47 49 51 48 45 51 54 56 58
24 24 23 23 23 23 22 21 21 22 23 23 23 23 25 26 25 26 27 29 30 31 31 32 34 35 35 37 38 40 41 42 43 44 46 47 50 53 53 52 54 52 51 52 55 57 59
29 28 26 25 25 25 25 24 24 23 24 25 26 26 27 28 30 31 31 31 31 32 33 35 36 38 38 40 41 43 44 45 46 48 49 51 54 56 58 57 57 55 53 54 60 58 59
33 33 32 31 31 30 30 30 30 29 29 29 30 31 31 31 32 32 33 35 35 36 36 37 39 40 40 41 43 44 45 47 48 50 51 54 56 59 60 60 60 54 57 60 63 60 60
36 37 36 36 36 36 36 37 37 37 36 36 37 38 38 38 37 37 37 38 38 38 38 40 41 43 44 45 45 47 48 49 51 53 54 56 57 59 59 60 60 60 62 65 68 64 63
39 40 40 40 40 40 41 41 42 42 42 43 43 41 39 38 38 39 40 40 41 42 42 43 44 45 46 47 49 49 50 52 55 56 54 55 55 56 58 61 59 59 67 68 65 67 64
40 41 42 43 43 44 44 45 45 45 45 46 46 46 45 45 44 44 44 44 44 46 47 47 48 47 49 51 52 53 55 55 55 54 54 53 54 55 58 60 64 62 65 64 65 62 62
40 41 42 43 44 44 45 46 45 45 46 46 46 47 47 48 48 48 48 50 50 51 52 52 53 54 55 55 56 57 58 57 56 58 55 56 54 55 59 58 59 63 61 64 61 61 61

GFSGBSN_500_spd_036.txt.gz
Wind_Speed
23 26 27 26 27 27 26 25 18 13 19 29 38 44 47 45 44 41 42 41 38 35 33 30 28 26 25 25 23 22 20 19 17 16 15 14 14 13 12 12 12 13 14 15 16 14 13
24 24 30 26 23 25 24 24 24 25 29 34 41 46 45 43 44 43 43 40 37 34 32 30 28 27 25 23 22 21 20 19 18 17 16 15 14 14 12 12 12 12 14 16 15 13 12
26 24 32 33 24 23 24 24 26 29 34 40 43 43 43 43 44 44 43 38 35 33 31 30 28 27 25 23 21 20 19 18 17 16 15 15 15 14 12 12 12 12 14 15 15 13 12
25 26 29 34 35 26 25 29 30 32 35 37 36 34 34 36 41 43 41 36 34 32 31 30 29 27 24 23 21 20 18 16 16 15 15 14 14 13 13 12 12 12 13 16 14 13 13
23 24 26 30 33 34 31 26 27 31 31 31 31 31 33 35 38 42 39 35 32 32 32 31 28 26 24 22 20 19 17 16 16 14 14 14 14 14 13 13 11 12 12 14 15 13 14
26 22 23 26 29 31 32 30 28 25 25 26 27 28 30 33 38 41 37 33 32 32 31 30 27 25 23 20 20 19 18 17 17 15 14 15 15 13 13 12 12 11 12 14 16 15 17
23 25 21 23 25 26 27 29 28 26 22 23 25 27 29 34 41 37 32 29 28 29 28 25 23 22 21 20 20 18 18 16 16 16 16 16 15 13 11 12 11 11 12 15 17 17 18
21 21 23 22 22 24 23 23 24 26 25 22 23 27 32 37 34 29 26 24 23 24 23 22 20 21 19 18 18 18 17 17 17 16 16 15 13 12 11 10 10 11 13 16 18 20 21
18 19 20 21 23 24 23 22 20 22 26 27 27 31 32 28 26 23 22 21 21 21 21 20 18 18 17 17 17 17 17 16 16 16 15 13 12 11 10 10 11 13 15 17 19 22 23
18 16 17 19 19 20 23 24 22 19 21 26 29 30 29 27 26 24 24 23 22 22 21 20 20 18 19 18 17 16 17 16 15 14 14 12 12 12 12 12 13 16 17 19 20 22 25
16 17 15 14 16 19 19 20 21 22 20 19 21 23 24 24 23 21 21 21 21 21 19 18 16 15 16 16 15 15 14 14 13 13 13 12 14 14 15 15 15 18 19 19 21 24 26
12 13 14 14 12 12 15 17 17 17 17 16 16 17 19 19 19 18 18 18 18 18 16 14 15 16 15 14 14 14 13 13 13 14 15 15 16 16 17 16 17 19 21 23 24 25 25
11 11 10 11 12 12 10 11 13 15 15 15 14 15 15 16 16 16 16 16 16 14 15 12 12 13 13 13 13 14 14 14 16 17 17 17 16 17 18 19 20 22 24 27 27 27 30
8 9 9 8 8 9 9 9 8 8 10 10 11 12 11 12 12 12 13 13 13 12 15 10 11 12 13 13 14 15 17 17 18 18 19 18 19 19 20 21 22 25 27 29 34 34 35
2 5 7 8 7 6 6 6 6 5 6 8 8 8 8 9 10 11 12 12 12 13 13 13 14 14 14 14 16 18 19 19 19 19 19 20 20 21 22 23 27 28 29 32 35 38 42
1 3 4 5 6 4 4 3 2 2 2 3 5 7 9 10 10 11 11 12 13 14 14 14 15 16 16 16 17 19 20 19 20 20 20 21 22 23 25 28 30 31 33 36 39 44 47
3 2 2 3 3 4 3 3 2 1 2 3 4 6 7 8 10 11 11 12 13 14 16 16 17 17 18 18 19 20 20 20 20 21 21 23 24 27 30 31 33 34 37 40 43 44 49
5 4 4 4 5 4 3 2 3 3 3 3 5 6 8 10 10 12 13 14 15 16 16 17 18 19 19 18 18 18 18 19 20 23 25 26 28 31 33 34 36 37 40 42 46 47 49
8 8 7 6 7 7 8 8 6 6 7 7 6 6 7 8 9 11 11 13 13 14 15 16 17 18 18 19 19 19 21 23 24 26 27 30 32 35 38 39 40 40 43 45 48 49 50
12 11 11 11 10 10 10 11 11 10 10 11 11 10 10 11 11 11 12 13 14 15 16 17 18 19 21 22 23 24 25 27 28 30 33 36 37 39 42 44 44 45 47 48 50 53 56
16 16 15 15 15 14 14 14 14 14 14 14 14 15 16 15 16 16 17 18 19 20 21 22 23 25 26 27 28 30 31 33 34 36 39 41 41 42 44 46 47 48 50 52 53 56 59
20 20 20 20 19 19 18 17 16 17 17 18 18 18 19 20 21 22 23 24 25 26 27 28 29 31 32 34 35 35 37 38 38 40 42 44 46 47 47 48 51 52 51 52 57 57 60
25 24 24 23 23 23 22 21 21 20 20 20 20 20 22 23 24 26 27 28 29 29 30 32 33 34 35 37 38 39 40 41 43 43 45 46 48 50 51 50 53 54 56 57 57 58 58
28 27 27 27 26 25 24 24 23 23 23 23 24 24 24 25 25 27 29 30 32 33 35 37 38 39 39 40 42 42 43 44 45 46 47 49 50 53 55 55 58 59 58 58 59 57 57
32 31 31 31 31 31 30 29 29 28 28 28 28 29 29 30 30 31 32 34 35 37 37 38 40 41 42 43 45 45 45 47 47 48 49 49 52 56 58 60 62 58 57 61 62 57 59
35 34 34 34 34 35 35 35 34 34 35 35 35 35 35 36 36 38 38 37 37 38 39 41 43 44 44 46 47 49 49 50 52 53 52 52 54 57 59 62 64 60 59 61 63 61 61
35 35 35 35 36 37 38 39 39 39 39 39 40 40 41 41 42 40 40 40 41 42 42 43 44 45 46 48 50 50 51 52 54 54 55 56 58 59 59 62 63 56 58 60 60 62 61
34 35 35 36 37 38 39 40 41 41 41 42 43 43 44 44 44 44 44 44 45 46 47 47 48 48 51 51 53 54 55 55 55 55 55 56 57 56 56 57 57 52 56 60 60 60 61
36 36 37 38 38 38 39 40 41 41 42 42 43 44 44 43 43 43 42 43 43 43 45 45 46 47 49 49 50 52 52 53 53 53 52 53 51 54 53 54 51 51 57 58 58 59 59